Regional Weather Roundup
Issued by NWS Northern Indiana

Home | Current Version | Previous Version | Graphics & Text | Print | Product List | Glossary On
Versions: 1 2 3 4 5 6 7 8 9 10 11 12 13 14 15 16 17 18 19 20 21 22 23 24 25 26 27 28 29 30 31 32 33 34 35 36 37 38 39 40 41 42 43 44 45 46 47 48 49 50
000
ASUS43 KIWX 250300
RWRIWX

KIWX WEATHER ROUNDUP
NATIONAL WEATHER SERVICE NORTHERN INDIANA
1000 PM EST SAT JAN 24 2015

NOTE: "FAIR" INDICATES FEW OR NO CLOUDS BELOW 12,000 FEET WITH NO
SIGNIFICANT WEATHER AND/OR OBSTRUCTIONS TO VISIBILITY.

* THESE STATIONS ARE NOT UNDER NWS QUALITY CONTROL. THEY ALSO MAY NOT
  REPORT WEATHER SUCH AS PRECIPITATION OR FOG.

INZ001>027-250400-
NORTHERN INDIANA

CITY           SKY/WX    TMP DP  RH WIND       PRES   REMARKS
GARY*          CLOUDY    36  30  80 CALM      29.69R
SOUTH BEND     CLOUDY    35  32  88 W5        29.68F WCI  31
GOSHEN         CLOUDY    35  32  88 SW6       29.68S WCI  30
ANGOLA*        CLOUDY    36  25  64 SW3       29.68S
FORT WAYNE     CLOUDY    35  33  92 SW7       29.71S WCI  29

$$
INZ028>050-250400-
CENTRAL INDIANA

CITY           SKY/WX    TMP DP  RH WIND       PRES   REMARKS
LAFAYETTE      CLEAR     34  32  92 CALM      29.71F
KOKOMO*        CLEAR     36  32  87 SW9       29.71F
MUNCIE*        CLOUDY    37  30  75 SW8       29.72F
INDIANAPOLIS   PTCLDY    29  27  92 S8        29.74F WCI  21

$$
MIZ043>046-050>051-056>058-064>065-071>073-077>080-250400-
SOUTHWEST LOWER MICHIGAN

CITY           SKY/WX    TMP DP  RH WIND       PRES   REMARKS
BATTLE CREEK   CLOUDY    36  31  82 SW6       29.67S
BENTON HARBOR  CLOUDY    35  33  92 VRB3      29.67F
COLDWATER*     CLOUDY    35  31  87 SW6       29.67S WCI  30
HILLSDALE*     CLOUDY    35  33  89 CALM      29.67R
HOLLAND        CLOUDY    38  33  82 W5        29.67S
GRAND RAPIDS   FLURRIES  35  33  92 W3        29.66S
KALAMAZOO      CLOUDY    36  30  79 SW3       29.67S
STURGIS*       CLOUDY    34  32  93 CALM      29.67S
THREE RIVERS*  CLOUDY    35  31  87 S3        29.68S

$$
OHZ001>008-015>018-024>025-250400-
NORTHWEST OHIO

CITY           SKY/WX    TMP DP  RH WIND       PRES   REMARKS
DEFIANCE       CLOUDY    36  31  82 SW6       29.71S
FINDLAY        CLOUDY    36  31  82 SW10      29.70S
TOLEDO EXPRESS CLOUDY    35  30  82 SW10      29.69S WCI  27
TOLEDO METCALF CLOUDY    35  29  78 SW9       29.70S WCI  28
LIMA           CLOUDY    36  30  79 SW8       29.71S

$$
AND FOR LAKE MICHIGAN COASTAL AND OPEN LAKE BUOY OBSERVATIONS

STATION/POSITION TEMP    WIND        PRES    VSBY  WAVE
                 AIR SEA DIR/SP/G                  HT/PER
                 (F)     (DEG/KT/KT) (MB)    (MI)  (FT/S)
CALUMET HARBOR    35     220/  3/  4   N/A
MICHIGAN CITY     34     220/  4/  4   N/A
SAINT JOSEPH      35     230/  4/  9 1006.1R

$$
&&


USA.gov is the U.S. government's official web portal to all federal, state and local government web resources and services.